FW5929 Weather Reports


Display with metric or nautical units.
time (UTC)temp
F
wind
direction
speed
MPH
gust
MPH
rain 1hr
in
rain 24hr
in
rain mn
in
humidity
%
barometer
mb
20260510100839 63 169 2.0 6.0 0.00 0.00 0.00 74 1011.4
20260510100315 62 113 3.0 7.0 0.00 0.00 0.00 76 1011.4
20260510095854 61 142 4.0 7.0 0.00 0.00 0.00 78 1011.4
20260510095332 61 98 3.0 8.0 0.00 0.00 0.00 80 1011.4
20260510094827 61 114 2.0 5.0 0.00 0.00 0.00 79 1011.4
20260510094324 61 105 3.0 7.0 0.00 0.00 0.00 78 1011.4
20260510093818 61 109 3.0 7.0 0.00 0.00 0.00 77 1011.4
20260510093339 60 113 3.0 7.0 0.00 0.00 0.00 77 1011.4
20260510092855 60 104 4.0 6.0 0.00 0.00 0.00 78 1011.4
20260510092352 60 124 3.0 6.0 0.00 0.00 0.00 76 1011.4
20260510091826 61 119 3.0 6.0 0.00 0.00 0.00 77 1011.4
20260510091325 61 111 3.0 6.0 0.00 0.00 0.00 76 1011.3
20260510090819 61 84 3.0 6.0 0.00 0.00 0.00 77 1011.2
20260510090315 61 74 2.0 5.0 0.00 0.00 0.00 77 1011.2
20260510085818 61 113 1.0 5.0 0.00 0.00 0.00 77 1011.2
20260510085317 61 68 3.0 5.0 0.00 0.00 0.00 77 1011.3
20260510084833 60 78 3.0 5.0 0.00 0.00 0.00 79 1011.3
20260510084349 60 83 2.0 7.0 0.00 0.00 0.00 77 1011.2
20260510083824 60 61 3.0 9.0 0.00 0.00 0.00 78 1011.2
20260510083321 60 57 5.0 9.0 0.00 0.00 0.00 78 1011.2
20260510082818 60 47 2.0 6.0 0.00 0.00 0.00 78 1011.2
20260510082316 60 51 4.0 6.0 0.00 0.00 0.00 79 1011.2
20260510081832 60 70 3.0 6.0 0.00 0.00 0.00 77 1011.3
20260510081330 61 94 2.0 7.0 0.00 0.00 0.00 77 1011.3
20260510080828 60 107 3.0 6.0 0.00 0.00 0.00 76 1011.3
20260510080324 60 84 4.0 7.0 0.00 0.00 0.00 76 1011.4
20260510075818 61 93 4.0 7.0 0.00 0.00 0.00 77 1011.4
20260510075317 61 98 5.0 8.0 0.00 0.00 0.00 78 1011.4
20260510074832 61 80 3.0 8.0 0.00 0.00 0.00 75 1011.3
20260510074331 61 67 4.0 9.0 0.00 0.00 0.00 77 1011.4
20260510073827 60 79 5.0 9.0 0.00 0.00 0.00 76 1011.2
20260510073326 60 65 3.0 7.0 0.00 0.00 0.00 79 1011.2
20260510072820 60 82 3.0 5.0 0.00 0.00 0.00 79 1011.3
20260510072316 60 68 2.0 6.0 0.00 0.00 0.00 78 1011.2
20260510071832 60 111 4.0 6.0 0.00 0.00 0.00 77 1011.2
20260510071331 59 125 1.0 4.0 0.00 0.00 0.00 78 1011.2
20260510070826 59 126 1.0 4.0 0.00 0.00 0.00 78 1011.1
20260510070325 59 97 1.0 4.0 0.00 0.00 0.00 77 1011.1
20260510065942 59 134 2.0 7.0 0.00 0.00 0.00 77 1011.1
20260510065346 59 131 5.0 7.0 0.00 0.00 0.00 76 1011.2
20260510064820 59 80 3.0 8.0 0.00 0.00 0.00 76 1011.0
20260510064319 59 74 4.0 8.0 0.00 0.00 0.00 76 1010.9
20260510063815 59 69 1.0 8.0 0.00 0.00 0.00 76 1011.0
20260510063314 59 105 3.0 8.0 0.00 0.00 0.00 76 1011.0
20260510062817 59 113 3.0 6.0 0.00 0.00 0.00 76 1011.0
20260510062336 59 84 3.0 9.0 0.00 0.00 0.00 77 1011.0
20260510061833 59 105 5.0 10.0 0.00 0.00 0.00 77 1011.0
20260510061330 59 67 4.0 10.0 0.00 0.00 0.00 77 1010.9
20260510060825 59 39 5.0 10.0 0.00 0.00 0.00 79 1010.9
20260510060322 58 27 4.0 8.0 0.00 0.00 0.00 79 1010.8
20260510055835 58 75 2.0 7.0 0.00 0.00 0.00 79 1010.9
20260510055351 58 61 4.0 9.0 0.00 0.00 0.00 80 1010.9
20260510054825 57 42 5.0 9.0 0.00 0.00 0.00 79 1010.9
20260510054322 57 47 4.0 7.0 0.00 0.00 0.00 79 1011.0
20260510053816 57 46 5.0 8.0 0.00 0.00 0.00 80 1011.0
20260510053335 57 72 5.0 8.0 0.00 0.00 0.00 80 1011.1
20260510052831 57 59 4.0 8.0 0.00 0.00 0.00 80 1011.1
20260510052328 56 94 3.0 10.0 0.00 0.00 0.00 80 1011.1
20260510051842 56 93 5.0 10.0 0.00 0.00 0.00 80 1011.1
20260510051337 56 77 5.0 9.0 0.00 0.00 0.00 81 1011.1
20260510050833 56 17 4.0 8.0 0.00 0.00 0.00 81 1011.0
20260510050330 56 50 4.0 8.0 0.00 0.00 0.00 81 1011.1
20260510045826 56 72 2.0 6.0 0.00 0.00 0.00 80 1011.1
20260510045323 56 53 3.0 7.0 0.00 0.00 0.00 80 1011.2
20260510044820 55 58 4.0 8.0 0.00 0.00 0.00 81 1011.3
20260510044317 55 59 3.0 7.0 0.00 0.00 0.00 81 1011.2
20260510043814 55 59 1.0 6.0 0.00 0.00 0.00 81 1011.2
20260510043314 55 50 2.0 6.0 0.00 0.00 0.00 81 1011.2
20260510042830 55 47 4.0 5.0 0.00 0.00 0.00 81 1011.2
20260510042328 55 52 2.0 5.0 0.00 0.00 0.00 80 1011.2
20260510041823 55 57 1.0 5.0 0.00 0.00 0.00 80 1011.2
20260510041320 55 50 3.0 6.0 0.00 0.00 0.00 80 1011.2
20260510040835 55 90 3.0 6.0 0.00 0.00 0.00 80 1011.2
20260510040313 55 65 3.0 5.0 0.00 0.00 0.00 81 1011.3
20260510035828 56 45 2.0 5.0 0.00 0.00 0.00 80 1011.4
20260510035328 56 41 2.0 4.0 0.00 0.00 0.00 80 1011.4
20260510034826 56 78 2.0 6.0 0.00 0.00 0.00 80 1011.4
20260510034322 56 68 3.0 6.0 0.00 0.00 0.00 79 1011.5
20260510033818 56 54 3.0 6.0 0.00 0.00 0.00 80 1011.5
20260510033315 55 63 3.0 9.0 0.00 0.00 0.00 80 1011.4
20260510032858 55 63 4.0 10.0 0.00 0.00 0.00 80 1011.5
20260510032353 55 65 5.0 10.0 0.00 0.00 0.00 80 1011.6
20260510031827 55 59 5.0 9.0 0.00 0.00 0.00 79 1011.5
20260510031325 55 60 4.0 9.0 0.00 0.00 0.00 79 1011.5
20260510030821 55 62 3.0 9.0 0.00 0.00 0.00 79 1011.6
20260510030335 55 65 3.0 7.0 0.00 0.00 0.00 78 1011.6
20260510025830 56 50 4.0 7.0 0.00 0.00 0.00 78 1011.7
20260510025323 56 46 4.0 10.0 0.00 0.00 0.00 78 1011.6
20260510024821 56 47 5.0 9.0 0.00 0.00 0.00 78 1011.6
20260510024319 55 76 5.0 9.0 0.00 0.00 0.00 79 1011.7
20260510023823 55 64 3.0 9.0 0.00 0.00 0.00 78 1011.7
20260510023321 55 76 5.0 9.0 0.00 0.00 0.00 79 1011.7
20260510022815 55 39 4.0 8.0 0.00 0.00 0.00 79 1011.7
20260510022332 55 37 5.0 11.0 0.00 0.00 0.00 79 1011.8
20260510021829 55 51 3.0 11.0 0.00 0.00 0.00 79 1011.8
20260510021325 55 76 2.0 5.0 0.00 0.00 0.00 78 1011.9
20260510020839 55 55 3.0 5.0 0.00 0.00 0.00 78 1011.8
20260510020314 56 84 1.0 6.0 0.00 0.00 0.00 77 1011.8
20260510015830 56 78 2.0 6.0 0.00 0.00 0.00 77 1011.8
20260510015329 56 38 2.0 6.0 0.00 0.00 0.00 77 1011.9
20260510014824 56 40 3.0 6.0 0.00 0.00 0.00 77 1011.9
20260510014323 56 30 3.0 6.0 0.00 0.00 0.00 77 1012.0
20260510013817 56 38 4.0 5.0 0.00 0.00 0.00 77 1012.0
20260510013315 56 62 3.0 5.0 0.00 0.00 0.00 77 1012.0
20260510012830 56 49 2.0 4.0 0.00 0.00 0.00 77 1012.1
20260510012329 56 49 1.0 3.0 0.00 0.00 0.00 76 1012.1
20260510011820 57 49 1.0 4.0 0.00 0.00 0.00 75 1012.2
20260510011317 57 49 1.0 5.0 0.00 0.00 0.00 74 1012.2
20260510010833 57 48 4.0 8.0 0.00 0.00 0.00 74 1012.2
20260510010349 57 34 5.0 9.0 0.00 0.00 0.00 74 1012.2
20260510005825 57 29 4.0 10.0 0.00 0.00 0.00 74 1012.3
20260510005323 57 28 6.0 10.0 0.00 0.00 0.00 74 1012.2
20260510004817 58 30 4.0 7.0 0.00 0.00 0.00 73 1012.3
20260510004314 58 44 4.0 6.0 0.00 0.00 0.00 73 1012.3
20260510003829 58 40 3.0 8.0 0.00 0.00 0.00 73 1012.4
20260510003343 58 38 4.0 8.0 0.00 0.00 0.00 73 1012.4
20260510002818 58 40 3.0 6.0 0.00 0.00 0.00 72 1012.5
20260510002316 58 41 2.0 8.0 0.00 0.00 0.00 72 1012.5
20260510001832 58 28 6.0 8.0 0.00 0.00 0.00 72 1012.6
20260510001330 58 39 4.0 9.0 0.00 0.00 0.00 72 1012.6
20260510000823 58 61 3.0 12.0 0.00 0.00 0.00 72 1012.7
20260510000341 58 38 6.0 12.0 0.00 0.00 0.00 72 1012.8
20260509235815 58 15 2.0 9.0 0.00 0.00 0.00 72 1012.8
20260509235333 58 20 3.0 9.0 0.00 0.00 0.00 73 1012.9
20260509234827 57 42 4.0 7.0 0.00 0.00 0.00 73 1012.9
20260509234323 58 25 1.0 4.0 0.00 0.00 0.00 73 1013.0
20260509233819 58 25 3.0 4.0 0.00 0.00 0.00 72 1012.9
20260509233313 59 29 1.0 7.0 0.00 0.00 0.00 70 1013.0
20260509232828 59 19 5.0 7.0 0.00 0.00 0.00 70 1013.0
20260509232325 59 9 4.0 6.0 0.00 0.00 0.00 70 1012.9
20260509231821 60 9 4.0 9.0 0.00 0.00 0.00 69 1013.0
20260509231338 60 38 6.0 9.0 0.00 0.00 0.00 68 1013.0
20260509230858 60 16 3.0 9.0 0.00 0.00 0.00 67 1013.0
20260509230330 60 31 6.0 11.0 0.00 0.00 0.00 67 1013.0
20260509225824 61 51 5.0 11.0 0.00 0.00 0.00 67 1013.0
20260509225322 61 32 6.0 11.0 0.00 0.00 0.00 66 1013.0
20260509224818 61 31 5.0 9.0 0.00 0.00 0.00 66 1013.0
20260509224336 61 69 5.0 8.0 0.00 0.00 0.00 66 1013.0
20260509223829 61 25 4.0 10.0 0.00 0.00 0.00 65 1012.9
20260509223329 61 28 4.0 10.0 0.00 0.00 0.00 66 1012.9
20260509222824 61 44 5.0 7.0 0.00 0.00 0.00 65 1012.9
20260509222321 61 50 5.0 7.0 0.00 0.00 0.00 65 1013.0
20260509221835 61 32 5.0 9.0 0.00 0.00 0.00 65 1013.0
20260509221332 61 24 5.0 9.0 0.00 0.00 0.00 66 1013.1
20260509220825 61 36 5.0 8.0 0.00 0.00 0.00 66 1013.0
20260509220323 61 40 4.0 9.0 0.00 0.00 0.00 66 1013.1
20260509215818 61 21 4.0 9.0 0.00 0.00 0.00 66 1013.2
20260509215316 61 44 5.0 9.0 0.00 0.00 0.00 66 1013.2
20260509214831 61 36 5.0 9.0 0.00 0.00 0.00 66 1013.2
20260509214331 61 23 4.0 9.0 0.00 0.00 0.00 67 1013.2
20260509213847 61 37 5.0 11.0 0.00 0.00 0.00 66 1013.2
20260509213324 61 44 6.0 11.0 0.00 0.00 0.00 66 1013.2
20260509212818 61 32 4.0 8.0 0.00 0.00 0.00 67 1013.2
20260509212338 61 61 4.0 9.0 0.00 0.00 0.00 67 1013.2
20260509211854 61 14 5.0 9.0 0.00 0.00 0.00 68 1013.3
20260509211331 61 14 4.0 8.0 0.00 0.00 0.00 68 1013.2
20260509210827 61 36 3.0 8.0 0.00 0.00 0.00 67 1013.1
20260509210326 62 38 3.0 9.0 0.00 0.00 0.00 67 1013.1
20260509205821 62 34 5.0 10.0 0.00 0.00 0.00 67 1013.1
20260509205321 62 37 6.0 10.0 0.00 0.00 0.00 67 1013.2
20260509204817 62 31 4.0 8.0 0.00 0.00 0.00 67 1013.2
20260509204315 62 19 4.0 9.0 0.00 0.00 0.00 67 1013.2
20260509203827 62 26 4.0 9.0 0.00 0.00 0.00 67 1013.2
20260509203327 62 34 4.0 7.0 0.00 0.00 0.00 67 1013.2
20260509202822 62 23 5.0 9.0 0.00 0.00 0.00 68 1013.3
20260509202322 62 42 5.0 9.0 0.00 0.00 0.00 68 1013.4
20260509201819 62 49 6.0 11.0 0.00 0.00 0.00 69 1013.4
20260509201316 62 360 5.0 11.0 0.00 0.00 0.00 70 1013.4
20260509200833 61 12 4.0 9.0 0.00 0.00 0.00 71 1013.4
20260509200330 61 42 3.0 6.0 0.00 0.00 0.00 71 1013.4
20260509195827 62 49 3.0 5.0 0.00 0.00 0.00 71 1013.4
20260509195326 62 11 3.0 5.0 0.00 0.00 0.00 70 1013.2
20260509194822 62 351 2.0 8.0 0.00 0.00 0.00 70 1013.2
20260509194341 63 26 4.0 8.0 0.00 0.00 0.00 70 1013.2
20260509193837 63 360 3.0 6.0 0.00 0.00 0.00 69 1013.2
20260509193356 64 38 4.0 8.0 0.00 0.00 0.00 68 1013.1
20260509192832 64 9 3.0 8.0 0.00 0.00 0.00 68 1013.1
20260509192330 64 41 3.0 6.0 0.00 0.00 0.00 68 1013.0
20260509191825 65 42 3.0 6.0 0.00 0.00 0.00 68 1013.1
20260509191322 65 24 3.0 6.0 0.00 0.00 0.00 67 1013.1
20260509190838 65 11 3.0 7.0 0.00 0.00 0.00 66 1013.0
20260509190315 66 27 4.0 7.0 0.00 0.00 0.00 66 1013.0
20260509185832 66 9 3.0 10.0 0.00 0.00 0.00 65 1013.0
20260509185330 66 26 5.0 10.0 0.00 0.00 0.00 65 1012.9
20260509184825 66 15 4.0 8.0 0.00 0.00 0.00 64 1012.9
20260509184323 67 24 4.0 8.0 0.00 0.00 0.00 65 1012.9
20260509183819 67 30 4.0 7.0 0.00 0.00 0.00 65 1012.9
20260509183318 67 32 3.0 7.0 0.00 0.00 0.00 64 1012.9
20260509182833 67 36 4.0 6.0 0.00 0.00 0.00 64 1012.9
20260509182351 68 36 5.0 6.0 0.00 0.00 0.00 64 1012.9
20260509181828 68 42 4.0 8.0 0.00 0.00 0.00 62 1012.9
20260509181326 68 36 4.0 8.0 0.00 0.00 0.00 63 1012.9
20260509180822 68 26 3.0 8.0 0.00 0.00 0.00 63 1012.9
20260509180322 69 25 4.0 8.0 0.00 0.00 0.00 62 1012.9
20260509175818 69 15 4.0 7.0 0.00 0.00 0.00 61 1012.9
20260509175335 70 51 3.0 6.0 0.00 0.00 0.00 63 1012.9
20260509174831 70 9 3.0 6.0 0.00 0.00 0.00 61 1012.9
20260509174329 70 32 2.0 8.0 0.00 0.00 0.00 63 1012.9
20260509173825 70 80 4.0 9.0 0.00 0.00 0.00 61 1012.9
20260509173343 70 42 4.0 9.0 0.00 0.00 0.00 60 1012.9
20260509172819 70 24 4.0 7.0 0.00 0.00 0.00 60 1012.9
20260509172318 70 24 3.0 7.0 0.00 0.00 0.00 61 1012.9
20260509171815 70 54 4.0 9.0 0.00 0.00 0.00 58 1012.9
20260509171329 70 63 4.0 10.0 0.00 0.00 0.00 58 1012.9
20260509170826 71 68 6.0 11.0 0.00 0.00 0.00 57 1012.9
20260509170325 71 50 6.0 12.0 0.00 0.00 0.00 58 1012.9
20260509165822 71 32 8.0 12.0 0.00 0.00 0.00 57 1012.8
20260509165321 71 37 5.0 10.0 0.00 0.00 0.00 59 1012.9
20260509164818 71 71 5.0 10.0 0.00 0.00 0.00 57 1012.8
20260509164316 71 47 4.0 11.0 0.00 0.00 0.00 59 1012.9
20260509163858 72 94 8.0 13.0 0.00 0.00 0.00 55 1013.0
20260509163353 71 55 9.0 13.0 0.00 0.00 0.00 57 1013.1
20260509162827 72 84 6.0 10.0 0.00 0.00 0.00 56 1013.1
20260509162327 72 39 4.0 9.0 0.00 0.00 0.00 57 1013.1
20260509161822 72 67 5.0 10.0 0.00 0.00 0.00 57 1013.2
20260509161318 72 17 6.0 10.0 0.00 0.00 0.00 57 1013.2
20260509160814 72 134 3.0 12.0 0.00 0.00 0.00 50 1013.2
20260509160313 72 160 5.0 12.0 0.00 0.00 0.00 52 1013.3
20260509155828 72 113 7.0 12.0 0.00 0.00 0.00 52 1013.4
20260509155327 72 84 7.0 13.0 0.00 0.00 0.00 54 1013.4
20260509154825 72 98 7.0 13.0 0.00 0.00 0.00 55 1013.4
20260509154324 72 88 7.0 13.0 0.00 0.00 0.00 55 1013.3
20260509153819 72 46 5.0 10.0 0.00 0.00 0.00 61 1013.3
20260509153337 72 52 5.0 10.0 0.00 0.00 0.00 57 1013.5
20260509152832 72 69 6.0 15.0 0.00 0.00 0.00 59 1013.6
20260509152331 71 42 9.0 15.0 0.00 0.00 0.00 54 1013.6
20260509151828 71 92 5.0 17.0 0.00 0.00 0.00 54 1013.8
20260509151326 72 76 9.0 17.0 0.00 0.00 0.00 56 1013.7
20260509150821 72 42 9.0 16.0 0.00 0.00 0.00 54 1013.7
20260509150320 72 82 9.0 11.0 0.00 0.00 0.00 56 1013.8
20260509145814 71 103 7.0 13.0 0.00 0.00 0.00 55 1013.8
20260509145332 72 42 6.0 15.0 0.00 0.00 0.00 55 1013.7
20260509144914 72 88 4.0 15.0 0.00 0.00 0.00 59 1013.8
20260509144330 71 66 9.0 13.0 0.00 0.00 0.00 56 1013.8
20260509143827 72 78 6.0 13.0 0.00 0.00 0.00 55 1013.9
20260509143324 72 98 10.0 13.0 0.00 0.00 0.00 57 1013.8
20260509142819 72 102 5.0 14.0 0.00 0.00 0.00 55 1013.9
20260509142316 71 103 6.0 14.0 0.00 0.00 0.00 58 1013.9
20260509141827 71 92 6.0 15.0 0.00 0.00 0.00 56 1013.9
20260509141347 71 56 7.0 16.0 0.00 0.00 0.00 59 1013.9
20260509140820 71 117 9.0 13.0 0.00 0.00 0.00 55 1013.9
20260509140319 72 85 7.0 13.0 0.00 0.00 0.00 60 1014.0
20260509135833 72 172 7.0 14.0 0.00 0.00 0.00 56 1013.9
20260509135330 72 92 7.0 14.0 0.00 0.00 0.00 54 1014.0
20260509134826 72 117 9.0 15.0 0.00 0.00 0.00 56 1014.0
20260509134327 72 75 11.0 16.0 0.00 0.00 0.00 56 1014.1
20260509133821 72 20 10.0 16.0 0.00 0.00 0.00 59 1014.0
20260509133319 72 55 10.0 16.0 0.00 0.00 0.00 58 1014.1
20260509132814 72 51 11.0 20.0 0.00 0.00 0.00 58 1014.2
20260509132332 72 24 12.0 17.0 0.00 0.00 0.00 57 1014.3
20260509131826 72 97 6.0 12.0 0.00 0.00 0.00 62 1014.4
20260509131323 72 92 7.0 13.0 0.00 0.00 0.00 57 1014.6
20260509130817 72 117 8.0 17.0 0.00 0.00 0.00 56 1014.6
20260509130314 71 81 10.0 17.0 0.00 0.00 0.00 58 1014.6
20260509125829 71 96 8.0 14.0 0.00 0.00 0.00 58 1014.5
20260509125326 72 110 6.0 18.0 0.00 0.00 0.00 61 1014.6
20260509124823 71 65 7.0 18.0 0.00 0.00 0.00 55 1014.6
20260509124318 71 93 10.0 17.0 0.00 0.00 0.00 60 1014.7
20260509123835 71 93 12.0 17.0 0.00 0.00 0.00 57 1014.8
20260509123354 72 136 7.0 12.0 0.00 0.00 0.00 59 1014.8
20260509122847 71 59 6.0 15.0 0.00 0.00 0.00 57 1014.8
20260509122345 71 88 9.0 19.0 0.00 0.00 0.00 58 1014.9
20260509121820 71 52 11.0 19.0 0.00 0.00 0.00 58 1014.9
20260509121318 71 61 11.0 19.0 0.00 0.00 0.00 60 1014.9
20260509120833 70 91 7.0 19.0 0.00 0.00 0.00 61 1015.0
20260509120331 70 63 8.0 20.0 0.00 0.00 0.00 62 1015.1
20260509115827 70 101 8.0 20.0 0.00 0.00 0.00 62 1015.1
20260509115327 70 72 7.0 17.0 0.00 0.00 0.00 62 1015.1
20260509114822 70 107 11.0 17.0 0.00 0.00 0.00 60 1015.1
20260509114318 70 9 11.0 16.0 0.00 0.00 0.00 62 1015.2
20260509113829 70 82 7.0 18.0 0.00 0.00 0.00 61 1015.2
20260509113328 70 63 8.0 17.0 0.00 0.00 0.00 68 1015.4
20260509112825 69 115 9.0 15.0 0.00 0.00 0.00 61 1015.4
20260509112322 69 80 4.0 17.0 0.00 0.00 0.00 67 1015.5
20260509111817 69 53 4.0 14.0 0.00 0.00 0.00 68 1015.5
20260509111339 70 111 8.0 16.0 0.00 0.00 0.00 64 1015.5
20260509110855 69 75 9.0 15.0 0.00 0.00 0.00 67 1015.5
20260509110330 69 71 11.0 15.0 0.00 0.00 0.00 67 1015.6
20260509105825 69 55 10.0 15.0 0.00 0.00 0.00 67 1015.7
20260509105322 69 72 9.0 14.0 0.00 0.00 0.00 68 1015.7
20260509104836 68 78 5.0 16.0 0.00 0.00 0.00 68 1015.8
20260509104332 68 70 9.0 18.0 0.00 0.00 0.00 69 1015.9
20260509103848 68 26 11.0 18.0 0.00 0.00 0.00 68 1015.9
20260509103325 68 110 10.0 15.0 0.00 0.00 0.00 70 1015.8
20260509102820 67 101 7.0 15.0 0.00 0.00 0.00 67 1015.9
20260509102336 67 89 10.0 16.0 0.00 0.00 0.00 68 1016.0
20260509101850 67 95 9.0 16.0 0.00 0.00 0.00 69 1016.0
20260509101326 67 74 9.0 15.0 0.00 0.00 0.00 68 1016.0